Regional Weather Roundup
Issued by NWS Cleveland, OH

Home | Current Version | Previous Version | Text Only | Print | Product List | Glossary Off
Versions: 1 2 3 4 5 6 7 8 9 10 11 12 13 14 15 16 17 18 19 20 21 22 23 24 25 26 27 28 29 30 31 32 33 34 35 36 37 38 39 40 41 42 43 44 45 46 47 48 49 50

000
ASUS41 KCLE 031300
RWRCLE
OHIO REGIONAL WEATHER ROUNDUP
NATIONAL WEATHER SERVICE WILMINGTON, OH
900 AM EDT THU SEP 03 2015

NOTE: "FAIR" INDICATES FEW OR NO CLOUDS BELOW 12,000 FEET WITH NO
SIGNIFICANT WEATHER AND/OR OBSTRUCTIONS TO VISIBILITY.

OHZ001>008-015>018-024>027-034-035-043-044-031400-
   NORTHWEST OHIO

CITY           SKY/WX    TMP DP  RH WIND       PRES   REMARKS
DEFIANCE       MOSUNNY   71  67  87 SE3       30.01S FOG
FINDLAY        SUNNY     75  69  81 CALM      30.01R
TOLEDO EXPRESS MOSUNNY   75  68  78 SW9       29.99S
TOLEDO EXEC    SUNNY     73  67  81 SW7       30.00S
LIMA           MOSUNNY   74  69  85 SW6       30.03S
$$

OHZ009>014-019>023-028>033-038-089-031400-
   NORTHEAST OHIO

CITY           SKY/WX    TMP DP  RH WIND       PRES   REMARKS
CLE-HOPKINS    PTSUNNY   72  68  87 SW5       30.02R
CLE-LAKEFRONT  PTSUNNY   76  69  79 W9        29.98R
CUY CO. ARPT   PTSUNNY   77  72  83 W7        30.00S
LORAIN-ELYRIA  MOSUNNY   73  68  84 NW3       30.01S
ASHTABULA      CLOUDY    74  72  93 W6        30.00R FOG
AKRON-CANTON   PTSUNNY   74  67  78 W5        30.02S
WOOSTER        NOT AVBL
MANSFIELD      PTSUNNY   73  66  78 W7        30.04S
YOUNGSTOWN     CLOUDY    70  68  93 CALM      30.01S FOG
$$

OHZ042-051>053-060>062-070>072-077>081-031400-
  SOUTHWEST OHIO

CITY           SKY/WX    TMP DP  RH WIND       PRES   REMARKS
CINC-COVINGTON MOSUNNY   73  70  90 CALM      30.06R
CINC-LUNKEN    SUNNY     70  69  97 CALM      30.05S
HAMILTON       SUNNY     73  70  90 CALM      30.05F FOG
DAYTON         NOT AVBL
WRIGHT-PAT AFB SUNNY     71  70  96 SW5       30.04S FOG
DAYTON GENERAL SUNNY     73  68  84 CALM      30.05R HAZE
WILMINGTON     MOSUNNY   70  66  87 CALM      30.05S FOG
$$

OHZ036-037-039>041-045>050-054>059-063>069-073>076-082>088-031400-
  CENTRAL AND SOUTHEAST OHIO

CITY           SKY/WX    TMP DP  RH WIND       PRES   REMARKS
COLUMBUS       PTSUNNY   73  67  81 CALM      30.03S
OSU AIRPORT    MOSUNNY   72  67  84 CALM      30.04R
BOLTON FIELD   SUNNY     70  70 100 CALM      30.04R
RICKENBACK AFB NOT AVBL
NEWARK         PTSUNNY   74  68  81 CALM      30.03R
MARION         MOSUNNY   72  68  87 W3        30.03S FOG
LANCASTER      MOSUNNY   72  67  84 CALM      30.04R
ZANESVILLE     MOSUNNY   72  66  81 SW3       30.03R HAZE
NEW PHILLY     SUNNY     70  68  93 CALM      30.02S FOG
$$


USA.gov is the U.S. government's official web portal to all federal, state and local government web resources and services.